NOAA 16 DEB, 41057

Orbit data source: Space-Track

NOAA 16 DEB, 41057 is space debris in SSO originally from a launch on Thu, 21 Sep 2000 UTC launched from the Air Force Western Test Range (AFWTR). Debris objects in space refer to the collection of defunct objects orbiting the Earth. Examples of debris include non-operational satellites, rocket bodies, and fragments generated from explosions, collisions, or faulty payload assembly.

Loading next visibility...
Identifier
41057, 2000-055Q
Orbit
SSO
Country
Flag of USUS
Related business
Manufacturer
Unknown
Mission
Spacecraft
Bus & Motor
Unknown
Mass
Unknown
Launch date (UTC)
2000-09-21 (25 years ago)
Launch vehicle
Unknown
Launch site
Air Force Western Test Range (AFWTR)
Object type
Payload
Rocket body
Debris
Shape & HBR
Unknown shape, 0.2 m
Radar Cross Section
Small (<0.1 m²)

Expand to show TLE details & history
Last TLE update: 11 hours ago

TLE from 11 hours ago
0 NOAA 16 DEB
1 41057U 00055Q   25288.42012813  .00008331  00000-0  26370-2 0  9998
2 41057  98.9359  76.4428 0021158 184.7344 175.3646 14.40250418513281
Epoch: 2025-10-15T10:04Z
TLE epoch observation values (Epoch: 2025-10-15T10:04:59.070Z)
Latitude
-0.00002°
Longitude
-98.99778°
Altitude
775.658 km
Speed
7.458 km/s
True Right ascension
05h 05m 46s
True Declination
0° 00' 00"
Sunlit
Object was in full shadow at epoch
Visualization orbit readout
Latitude
Unknown
Longitude
Unknown
Altitude
Unknown
Speed
Unknown
Apparent Right ascension
Unknown
Apparent Declination
Unknown
Sunlit
N/A
Visualization observer readout
Local Sidereal Time
15:52:36
Azimuth
Unknown
Elevation
Unknown
Doppler factor
Unknown
Orbital elements
Apogee altitude
769.906 km
Perigee altitude
739.722 km
Semi-major axis
7,132.951 km
Eccentricity
0.00212
Inclination
98.9359°
RAAN
76.4428°
Arg. of periapsis
184.7344°
True anomaly
175.38414°
Mean anomaly
175.3646°
Eccentric anomaly
175.37438°
Mean motion
3.60279 °/min
Orbital period
99.92 mins
BSTAR
0.002637
Loading maneuver chart data...
Computing Atmospheric mass density...

Documentation

Showing up to 5 results
|